User: anonymous
Location: Vancouver
(49.2500°N, 123.1330°W)
Time: 06:52:56
(UTC-07:00)
Language:

Iridium 35 - Orbit

View from above orbital plane
View from above orbital plane
View from above satellite
View from above satellite

Ground track
Ground track

The orbit data is extracted from the following two-line orbital elements,

1 24966U 97056B   14212.44454272  .00000060  00000-0  14183-4 0  9285
2 24966 086.3941 038.3227 0002152 105.2971 254.8463 14.34216108881784
Epoch (UTC): 31 July 2014 10:40:08
Eccentricity: 0.0002152
inclination: 86.3941°
perigee height: 776 km
apogee height: 779 km
right ascension of ascending node: 38.3227°
argument of perigee: 105.2971°
revolutions per day: 14.34216108
mean anomaly at epoch: 254.8463°
orbit number at epoch: 88178

The dashed part of the orbit path shows where the satellite is in the earth's shadow,  

DLR